Regional Weather Roundup
Issued by NWS Charleston, WV

Home | Current Version | Previous Version | Graphics & Text | Print | Product List | Glossary On
Versions: 1 2 3 4 5 6 7 8 9 10 11 12 13 14 15 16 17 18 19 20 21 22 23 24 25 26 27 28 29 30 31 32 33 34 35 36 37 38 39 40 41 42 43 44 45 46 47 48 49 50
824
ASUS41 KRLX 110610
RWRRLX
West Virginia Regional Weather Roundup
National Weather Service Charleston WV
100 AM EST MON DEC 11 2017

Note: "fair" indicates few or no clouds below 12,000 feet with no
significant weather and/or obstructions to visibility.

WVZ003-110700-
Northern Panhandle of West Virginia

CITY           SKY/WX    TMP DP  RH WIND       PRES   REMARKS
WHEELING       CLOUDY    31  17  56 SW9       29.96F
$$

WVZ009-110700-
Northwest West Virginia

CITY           SKY/WX    TMP DP  RH WIND       PRES   REMARKS
PARKERSBURG    CLOUDY    36  18  48 SW9       30.04F
$$

WVZ006-110700-
Western West Virginia

CITY           SKY/WX    TMP DP  RH WIND       PRES   REMARKS
HUNTINGTON     CLEAR     33  16  49 SW8       30.07R
$$

WVZ015-110700-
West Central West Virginia

CITY           SKY/WX    TMP DP  RH WIND       PRES   REMARKS
CHARLESTON     CLOUDY    39  17  41 W10       30.06S
$$

WVZ022-031-110700-
North Central West Virginia

CITY           SKY/WX    TMP DP  RH WIND       PRES   REMARKS
CLARKSBURG     CLOUDY    36  17  46 SW9       30.00F
MORGANTOWN     CLOUDY    34  17  50 SW6       29.99F
$$

WVZ025-035-042-045-110700-
Southern West Virginia

CITY           SKY/WX    TMP DP  RH WIND       PRES   REMARKS
BECKLEY        NOT AVBL
LOGAN          MOCLDY    37  18  44 W12G21    30.06S
BLUEFIELD      CLEAR     30  16  56 W14G22    30.02S
LEWISBURG      CLOUDY    33  17  53 SW8       30.01F
$$

WVZ047-110700-
Northern Mountains of West Virginia

CITY           SKY/WX    TMP DP  RH WIND       PRES   REMARKS
ELKINS         CLOUDY    34  16  47 W10G22    29.99F
$$

WVZ052-110700-
Eastern Panhandle of West Virginia

CITY           SKY/WX    TMP DP  RH WIND       PRES   REMARKS
MARTINSBURG    CLOUDY    32  20  61 CALM      29.99F
PETERSBURG     CLEAR     38  18  44 SW13G26   29.97S
$$




USA.gov is the U.S. government's official web portal to all federal, state and local government web resources and services.